DM5RC Weather Reports


time (UTC)temp
C
wind
direction
speed
KPH
gust
KPH
rain 1hr
cm
rain 24hr
cm
rain mn
cm
humidity
%
barometer
mb
20260903211840 18 260 8.0 11.3 0.00 0.00 0.00 84 1014.8
20260903211320 18 236 6.4 16.1 0.00 0.00 0.00 84 1014.8
20260903210822 18 274 8.0 16.1 0.00 0.00 0.00 84 1014.8
20260903210324 18 283 6.4 14.5 0.00 0.00 0.00 84 1014.7
20260903205827 18 278 6.4 16.1 0.00 0.00 0.00 84 1014.6
20260903205328 18 233 4.8 19.3 0.00 0.00 0.00 84 1014.7
20260903204831 18 261 9.7 19.3 0.00 0.00 0.00 84 1014.6
20260903204313 18 258 6.4 17.7 0.00 0.00 0.00 84 1014.7
20260903203814 18 244 4.8 17.7 0.00 0.00 0.00 84 1014.9
20260903203338 18 282 6.4 17.7 0.00 0.00 0.00 84 1014.9
20260903202821 18 256 6.4 16.1 0.00 0.00 0.00 84 1015.0
20260903202326 18 261 9.7 16.1 0.00 0.00 0.00 84 1015.0
20260903201829 18 264 6.4 17.7 0.00 0.00 0.00 83 1015.1
20260903201313 18 250 6.4 19.3 0.00 0.00 0.00 83 1014.9
20260903200819 18 236 9.7 19.3 0.00 0.00 0.00 83 1014.9
20260903200323 18 248 8.0 17.7 0.00 0.00 0.00 83 1014.8
20260903195824 18 257 6.4 19.3 0.00 0.00 0.00 83 1014.7
20260903195326 18 255 9.7 19.3 0.00 0.00 0.00 83 1014.7
20260903194828 18 250 9.7 19.3 0.00 0.00 0.00 83 1014.7
20260903194330 18 218 8.0 19.3 0.00 0.00 0.00 82 1014.9
20260903193833 18 283 6.4 19.3 0.00 0.00 0.00 82 1014.9
20260903193313 18 264 8.0 19.3 0.00 0.00 0.00 82 1014.9
20260903192814 18 272 9.7 19.3 0.00 0.00 0.00 82 1014.8
20260903192315 18 210 9.7 20.9 0.00 0.00 0.00 82 1014.8
20260903191818 18 264 9.7 20.9 0.00 0.00 0.00 82 1014.9
20260903191322 18 261 8.0 20.9 0.00 0.00 0.00 82 1014.9
20260903190826 18 270 11.3 19.3 0.00 0.00 0.00 82 1014.9
20260903190331 18 269 6.4 20.9 0.00 0.00 0.00 82 1014.9
20260903185815 18 243 8.0 20.9 0.00 0.00 0.00 81 1014.9
20260903185318 18 285 9.7 17.7 0.00 0.00 0.00 81 1015.0
20260903184841 18 272 8.0 20.9 0.00 0.00 0.00 81 1014.9
20260903184322 18 223 8.0 20.9 0.00 0.00 0.00 81 1014.8
20260903183824 18 266 9.7 29.0 0.00 0.00 0.00 81 1014.9
20260903183317 18 259 16.1 29.0 0.00 0.00 0.00 81 1014.9
20260903182818 19 274 11.3 27.4 0.00 0.00 0.00 80 1014.7
20260903182338 19 269 14.5 27.4 0.00 0.00 0.00 80 1014.8
20260903181817 19 248 11.3 22.5 0.00 0.00 0.00 80 1014.8
20260903181318 19 268 16.1 22.5 0.00 0.00 0.00 80 1014.7
20260903180817 19 272 8.0 25.7 0.00 0.00 0.00 79 1014.6
20260903180328 19 269 14.5 25.7 0.00 0.00 0.00 79 1014.6
20260903175831 19 264 14.5 25.7 0.00 0.00 0.00 79 1014.6
20260903175314 19 287 9.7 24.1 0.00 0.00 0.00 79 1014.6
20260903174817 20 270 9.7 20.9 0.00 0.00 0.00 78 1014.7
20260903174318 20 245 11.3 24.1 0.00 0.00 0.00 77 1014.7
20260903173821 20 273 12.9 35.4 0.00 0.00 0.00 77 1014.5
20260903173324 20 234 17.7 35.4 0.00 0.00 0.00 77 1014.5
20260903172827 20 281 14.5 35.4 0.00 0.00 0.00 77 1014.5
20260903172330 20 223 16.1 40.2 0.00 0.00 0.00 76 1014.4
20260903171814 20 279 20.9 40.2 0.00 0.00 0.00 75 1014.4
20260903171316 20 274 14.5 35.4 0.00 0.00 0.00 75 1014.3
20260903170819 20 258 12.9 40.2 0.00 0.00 0.00 74 1014.5
20260903170321 20 316 20.9 40.2 0.00 0.00 0.00 74 1014.4
20260903165825 20 255 11.3 32.2 0.00 0.00 0.00 73 1014.4
20260903165327 20 240 19.3 32.2 0.00 0.00 0.00 72 1014.4
20260903164850 21 220 19.3 35.4 0.00 0.00 0.00 71 1014.3
20260903164331 21 267 19.3 45.1 0.00 0.00 0.00 70 1014.2
20260903163835 21 285 14.5 35.4 0.00 0.00 0.00 70 1014.2
20260903163316 21 236 24.1 35.4 0.00 0.00 0.00 69 1014.3
20260903162821 21 266 14.5 35.4 0.00 0.00 0.00 68 1014.2
20260903162324 21 72 9.7 40.2 0.00 0.00 0.00 68 1014.2
20260903161828 21 293 22.5 43.5 0.00 0.00 0.00 67 1014.4
20260903161328 22 245 24.1 43.5 0.00 0.00 0.00 66 1014.3
20260903160816 22 177 16.1 41.8 0.00 0.00 0.00 65 1014.3
20260903160314 22 249 22.5 41.8 0.00 0.00 0.00 64 1014.4
20260903155814 22 263 11.3 38.6 0.00 0.00 0.00 63 1014.2
20260903155317 23 283 22.5 43.5 0.00 0.00 0.00 62 1014.2
20260903154820 23 264 24.1 43.5 0.00 0.00 0.00 61 1014.3
20260903154323 23 268 17.7 38.6 0.00 0.00 0.00 61 1014.2
20260903153845 23 241 22.5 38.6 0.00 0.00 0.00 60 1014.1
20260903153346 23 269 12.9 32.2 0.00 0.00 0.00 60 1014.1
20260903152825 23 276 14.5 40.2 0.00 0.00 0.00 59 1014.1
20260903152347 23 288 19.3 41.8 0.00 0.00 0.00 59 1014.2
20260903151849 23 240 19.3 41.8 0.00 0.00 0.00 59 1014.2
20260903151330 23 264 16.1 32.2 0.00 0.00 0.00 59 1014.2
20260903150833 23 282 19.3 35.4 0.00 0.00 0.00 59 1014.2
20260903150333 23 267 12.9 29.0 0.00 0.00 0.00 59 1014.5
20260903145816 23 248 11.3 19.3 0.00 0.00 0.00 60 1014.3
20260903145337 23 264 8.0 19.3 0.00 0.00 0.00 60 1014.2
20260903144834 23 272 8.0 24.1 0.00 0.00 0.00 60 1014.3
20260903144314 23 252 8.0 24.1 0.00 0.00 0.00 60 1014.4
20260903143816 23 224 12.9 19.3 0.00 0.00 0.00 59 1014.4
20260903143318 23 260 8.0 24.1 0.00 0.00 0.00 60 1014.4
20260903142820 23 284 8.0 24.1 0.00 0.00 0.00 60 1014.5
20260903142342 23 276 6.4 20.9 0.00 0.00 0.00 59 1014.6
20260903141824 23 249 11.3 24.1 0.00 0.00 0.00 59 1014.6
20260903141326 23 268 12.9 24.1 0.00 0.00 0.00 59 1014.7
20260903140849 23 264 8.0 22.5 0.00 0.00 0.00 59 1014.7
20260903140331 23 269 9.7 29.0 0.00 0.00 0.00 59 1014.8
20260903135816 23 210 17.7 29.0 0.00 0.00 0.00 58 1014.9
20260903135339 23 254 11.3 27.4 0.00 0.00 0.00 58 1014.9
20260903134820 23 238 12.9 22.5 0.00 0.00 0.00 58 1014.8
20260903134320 23 263 12.9 24.1 0.00 0.00 0.00 57 1014.8
20260903133819 23 250 11.3 24.1 0.00 0.00 0.00 58 1014.8
20260903133319 23 230 11.3 25.7 0.00 0.00 0.00 57 1014.9
20260903132819 23 236 11.3 20.9 0.00 0.00 0.00 57 1015.0
20260903132320 23 219 11.3 25.7 0.00 0.00 0.00 57 1015.0
20260903131840 23 283 11.3 25.7 0.00 0.00 0.00 58 1015.1
20260903131321 22 233 12.9 25.7 0.00 0.00 0.00 58 1015.2
20260903130823 22 138 8.0 17.7 0.00 0.00 0.00 59 1015.2
20260903130318 22 229 9.7 20.9 0.00 0.00 0.00 58 1015.2
20260903125821 22 184 6.4 24.1 0.00 0.00 0.00 59 1015.4
20260903125343 22 257 8.0 24.1 0.00 0.00 0.00 59 1015.5
20260903124825 22 242 8.0 20.9 0.00 0.00 0.00 59 1015.5
20260903124328 22 272 8.0 20.9 0.00 0.00 0.00 58 1015.6
20260903123830 22 233 6.4 17.7 0.00 0.00 0.00 60 1015.7
20260903123331 22 269 8.0 22.5 0.00 0.00 0.00 61 1015.8
20260903122837 21 268 11.3 25.7 0.00 0.00 0.00 60 1015.8
20260903122319 22 261 12.9 25.7 0.00 0.00 0.00 61 1015.8
20260903121821 22 274 11.3 24.1 0.00 0.00 0.00 61 1015.9
20260903121323 22 262 11.3 20.9 0.00 0.00 0.00 61 1016.0
20260903120826 21 272 8.0 19.3 0.00 0.00 0.00 62 1016.0
20260903120328 21 238 9.7 25.7 0.00 0.00 0.00 62 1016.0
20260903115830 21 271 11.3 25.7 0.00 0.00 0.00 62 1016.1
20260903115313 21 290 9.7 22.5 0.00 0.00 0.00 63 1016.1
20260903114814 21 245 9.7 22.5 0.00 0.00 0.00 63 1016.1
20260903114315 21 185 11.3 19.3 0.00 0.00 0.00 63 1016.1
20260903113817 21 248 4.8 16.1 0.00 0.00 0.00 63 1016.2
20260903113317 21 262 11.3 24.1 0.00 0.00 0.00 62 1016.2
20260903112816 21 258 9.7 25.7 0.00 0.00 0.00 63 1016.3
20260903112314 21 258 16.1 30.6 0.00 0.00 0.00 61 1016.3
20260903111819 22 227 11.3 29.0 0.00 0.00 0.00 62 1016.2
20260903111322 22 249 14.5 27.4 0.00 0.00 0.00 62 1016.2
20260903110823 22 250 12.9 22.5 0.00 0.00 0.00 62 1016.4
20260903110325 22 270 11.3 17.7 0.00 0.00 0.00 62 1016.4
20260903105842 21 268 11.3 22.5 0.00 0.00 0.00 63 1016.4
20260903105341 21 263 11.3 22.5 0.00 0.00 0.00 63 1016.5
20260903104821 21 185 8.0 16.1 0.00 0.00 0.00 64 1016.6
20260903104321 21 246 4.8 33.8 0.00 0.00 0.00 65 1016.6
20260903103822 21 231 11.3 33.8 0.00 0.00 0.00 64 1016.8
20260903103344 21 270 9.7 20.9 0.00 0.00 0.00 64 1017.1
20260903102826 21 286 9.7 20.9 0.00 0.00 0.00 64 1017.0
20260903102350 21 257 11.3 20.9 0.00 0.00 0.00 63 1017.0
20260903101812 21 271 11.3 19.3 0.00 0.00 0.00 64 1017.0
20260903101314 21 267 6.4 27.4 0.00 0.00 0.00 65 1017.1
20260903100817 21 277 11.3 27.4 0.00 0.00 0.00 65 1017.2
20260903100320 21 232 8.0 19.3 0.00 0.00 0.00 65 1017.2
20260903095821 21 247 8.0 19.3 0.00 0.00 0.00 66 1017.2
20260903095323 21 214 11.3 19.3 0.00 0.00 0.00 65 1017.2
20260903094822 20 255 12.9 19.3 0.00 0.00 0.00 65 1017.3
20260903094322 20 261 8.0 19.3 0.00 0.00 0.00 66 1017.2
20260903093843 20 267 9.7 19.3 0.00 0.00 0.00 66 1017.2
20260903093322 20 257 8.0 24.1 0.00 0.00 0.00 68 1017.4
20260903092822 20 179 14.5 25.7 0.00 0.00 0.00 67 1017.4
20260903092322 20 202 14.5 25.7 0.00 0.00 0.00 67 1017.6
20260903091823 20 293 9.7 17.7 0.00 0.00 0.00 69 1017.5
20260903091342 20 188 11.3 17.7 0.00 0.00 0.00 70 1017.6
20260903090822 20 233 3.2 20.9 0.00 0.00 0.00 71 1017.5
20260903090322 20 259 11.3 20.9 0.00 0.00 0.00 70 1017.7
20260903085822 20 260 6.4 19.3 0.00 0.00 0.00 71 1017.6
20260903085322 20 219 8.0 19.3 0.00 0.00 0.00 71 1017.7
20260903084823 20 269 6.4 12.9 0.00 0.00 0.00 73 1017.8
20260903084325 20 262 4.8 17.7 0.00 0.00 0.00 74 1017.8
20260903083828 19 240 8.0 17.7 0.00 0.00 0.00 73 1017.9
20260903083330 19 207 6.4 17.7 0.00 0.00 0.00 74 1018.0
20260903082832 19 261 6.4 17.7 0.00 0.00 0.00 75 1018.1
20260903082314 19 241 6.4 17.7 0.00 0.00 0.00 75 1018.1
20260903081817 19 222 11.3 20.9 0.00 0.00 0.00 75 1018.0
20260903081320 19 281 9.7 20.9 0.00 0.00 0.00 75 1017.9
20260903080822 18 250 9.7 17.7 0.00 0.00 0.00 76 1017.9
20260903080326 18 248 8.0 17.7 0.00 0.00 0.00 76 1017.8
20260903075825 18 272 8.0 16.1 0.00 0.00 0.00 77 1017.7
20260903075327 18 274 9.7 16.1 0.00 0.00 0.00 77 1017.8
20260903074828 18 212 6.4 16.1 0.00 0.00 0.00 78 1017.8
20260903074328 18 264 6.4 14.5 0.00 0.00 0.00 78 1017.7
20260903073829 18 259 4.8 14.5 0.00 0.00 0.00 78 1017.6
20260903073349 18 262 6.4 17.7 0.00 0.00 0.00 79 1017.9
20260903072850 17 231 8.0 17.7 0.00 0.00 0.00 80 1018.0
20260903072329 17 280 6.4 16.1 0.00 0.00 0.00 80 1018.0
20260903071830 18 224 8.0 12.9 0.00 0.00 0.00 79 1017.8
20260903071351 17 147 3.2 14.5 0.00 0.00 0.00 82 1017.8
20260903070830 17 210 6.4 12.9 0.00 0.00 0.00 82 1017.9
20260903070321 16 203 8.0 12.9 0.00 0.00 0.00 83 1017.9
20260903065821 16 262 4.8 11.3 0.00 0.00 0.00 84 1017.9
20260903065322 16 277 4.8 8.0 0.00 0.00 0.00 85 1018.0
20260903064825 16 199 1.6 6.4 0.00 0.00 0.00 85 1018.0
20260903064330 16 259 3.2 11.3 0.00 0.00 0.00 85 1018.1
20260903063814 16 206 4.8 11.3 0.00 0.00 0.00 85 1018.0
20260903063315 16 194 3.2 11.3 0.00 0.00 0.00 85 1018.0
20260903062818 16 209 3.2 8.0 0.00 0.00 0.00 85 1018.2
20260903062319 16 243 4.8 8.0 0.00 0.00 0.00 85 1018.2
20260903061819 16 270 3.2 8.0 0.00 0.00 0.00 86 1018.2
20260903061317 15 224 4.8 8.0 0.00 0.00 0.00 86 1018.2
20260903060838 15 256 3.2 8.0 0.00 0.00 0.00 86 1018.3
20260903060337 15 231 4.8 8.0 0.00 0.00 0.00 87 1018.2
20260903055817 15 259 3.2 12.9 0.00 0.00 0.00 87 1018.4
20260903055317 15 219 6.4 12.9 0.00 0.00 0.00 87 1018.3
20260903054817 15 228 3.2 9.7 0.00 0.00 0.00 87 1018.2
20260903054319 15 226 6.4 9.7 0.00 0.00 0.00 87 1018.1
20260903053822 15 208 3.2 8.0 0.00 0.00 0.00 87 1018.1
20260903053323 15 249 3.2 9.7 0.00 0.00 0.00 87 1018.2
20260903052827 15 270 4.8 11.3 0.00 0.00 0.00 87 1018.1
20260903052349 15 233 4.8 11.3 0.00 0.00 0.00 87 1018.1
20260903051831 15 236 4.8 9.7 0.00 0.00 0.00 88 1018.2
20260903051334 15 234 4.8 11.3 0.00 0.00 0.00 88 1018.2
20260903050848 14 255 3.2 9.7 0.00 0.00 0.00 88 1018.1
20260903050325 14 269 3.2 9.7 0.00 0.00 0.00 88 1018.1
20260903045812 14 290 4.8 8.0 0.00 0.00 0.00 88 1018.1
20260903045316 14 191 3.2 8.0 0.00 0.00 0.00 88 1018.0
20260903044817 14 230 3.2 6.4 0.00 0.00 0.00 88 1018.0
20260903044336 14 237 3.2 6.4 0.00 0.00 0.00 88 1018.0
20260903043816 14 270 4.8 6.4 0.00 0.00 0.00 87 1018.0
20260903043318 14 246 3.2 6.4 0.00 0.00 0.00 87 1018.0
20260903042821 14 230 3.2 8.0 0.00 0.00 0.00 87 1018.0
20260903042322 14 266 3.2 8.0 0.00 0.00 0.00 87 1018.0
20260903041823 14 233 3.2 6.4 0.00 0.00 0.00 87 1017.9
20260903041325 14 239 3.2 6.4 0.00 0.00 0.00 86 1017.9
20260903040825 15 264 3.2 8.0 0.00 0.00 0.00 86 1017.9
20260903035825 15 256 4.8 9.7 0.00 0.00 0.00 86 1018.2
20260903035326 15 224 4.8 9.7 0.00 0.00 0.00 85 1018.2
20260903034826 15 256 3.2 8.0 0.00 0.00 0.00 85 1018.1
20260903034327 15 226 4.8 11.3 0.00 0.00 0.00 85 1018.0
20260903033829 15 280 4.8 6.4 0.00 0.00 0.00 85 1018.1
20260903033329 15 264 3.2 6.4 0.00 0.00 0.00 85 1018.0
20260903032852 15 274 3.2 8.0 0.00 0.00 0.00 85 1018.0
20260903032315 15 264 4.8 8.0 0.00 0.00 0.00 85 1018.0
20260903031840 15 269 4.8 8.0 0.00 0.00 0.00 85 1018.0
20260903031322 15 273 4.8 9.7 0.00 0.00 0.00 85 1018.0
20260903030816 15 252 6.4 11.3 0.00 0.00 0.00 85 1018.0
20260903030316 15 267 6.4 12.9 0.00 0.00 0.00 85 1018.0
20260903025817 15 279 6.4 12.9 0.00 0.00 0.00 85 1018.1
20260903025337 15 268 4.8 9.7 0.00 0.00 0.00 85 1018.0
20260903024815 15 274 4.8 11.3 0.00 0.00 0.00 85 1018.0
20260903024316 15 262 4.8 12.9 0.00 0.00 0.00 85 1018.0
20260903023835 15 273 4.8 12.9 0.00 0.00 0.00 86 1018.0
20260903023335 15 271 6.4 11.3 0.00 0.00 0.00 86 1018.0
20260903022815 15 270 4.8 8.0 0.00 0.00 0.00 87 1018.0
20260903022317 15 254 4.8 6.4 0.00 0.00 0.00 87 1018.0
20260903021820 15 273 3.2 6.4 0.00 0.00 0.00 87 1018.1
20260903021343 15 264 4.8 8.0 0.00 0.00 0.00 87 1018.1
20260903020822 15 272 4.8 8.0 0.00 0.00 0.00 87 1018.1
20260903020325 15 241 3.2 6.4 0.00 0.00 0.00 87 1018.1
20260903015828 15 259 3.2 8.0 0.00 0.00 0.00 87 1018.1
20260903015330 15 262 4.8 8.0 0.00 0.00 0.00 87 1018.2
20260903014812 15 257 4.8 8.0 0.00 0.00 0.00 87 1018.2
20260903014313 15 264 3.2 4.8 0.00 0.00 0.00 87 1018.2
20260903013814 15 255 3.2 6.4 0.00 0.00 0.00 87 1018.1
20260903013316 15 261 3.2 6.4 0.00 0.00 0.00 87 1018.1
20260903012818 15 274 3.2 6.4 0.00 0.00 0.00 86 1018.1
20260903012321 15 250 3.2 8.0 0.00 0.00 0.00 86 1018.2
20260903011823 15 250 4.8 8.0 0.00 0.00 0.00 86 1018.2
20260903011345 15 269 3.2 6.4 0.00 0.00 0.00 86 1018.2
20260903010827 15 269 3.2 6.4 0.00 0.00 0.00 86 1018.2
20260903010329 15 268 1.6 6.4 0.00 0.00 0.00 86 1018.2
20260903005830 15 268 3.2 6.4 0.00 0.00 0.00 86 1018.2
20260903005331 15 258 1.6 4.8 0.00 0.00 0.00 85 1018.3
20260903004832 15 269 3.2 4.8 0.00 0.00 0.00 85 1018.3
20260903004313 15 264 3.2 6.4 0.00 0.00 0.00 85 1018.3
20260903003817 15 269 3.2 6.4 0.00 0.00 0.00 85 1018.3
20260903003323 15 273 4.8 6.4 0.00 0.00 0.00 85 1018.2
20260903002828 15 272 3.2 9.7 0.00 0.00 0.00 86 1018.2
20260903002314 15 273 4.8 9.7 0.00 0.00 0.00 86 1018.2
20260903001817 15 265 1.6 3.2 0.00 0.00 0.00 86 1018.1
20260903001317 15 265 1.6 3.2 0.00 0.00 0.00 86 1018.1
20260903000816 15 265 1.6 3.2 0.00 0.00 0.00 86 1018.1
20260903000314 15 265 0.0 1.6 0.00 0.00 0.00 86 1018.0
20260902235814 15 265 0.0 3.2 0.00 0.00 0.00 85 1018.0
20260902235315 15 265 1.6 3.2 0.00 0.00 0.00 85 1018.0
20260902234815 15 265 1.6 3.2 0.00 0.00 0.00 85 1018.1
20260902234335 15 265 1.6 4.8 0.00 0.00 0.00 85 1018.1
20260902233815 15 265 3.2 4.8 0.00 0.00 0.00 85 1018.1
20260902233335 15 256 1.6 4.8 0.00 0.00 0.00 85 1018.1
20260902232816 15 249 1.6 3.2 0.00 0.00 0.00 85 1018.1
20260902232319 15 243 1.6 4.8 0.00 0.00 0.00 85 1018.0
20260902231821 15 262 1.6 4.8 0.00 0.00 0.00 85 1018.1
20260902231324 15 259 3.2 4.8 0.00 0.00 0.00 86 1018.1
20260902230827 15 256 3.2 4.8 0.00 0.00 0.00 86 1018.1
20260902230329 15 259 1.6 3.2 0.00 0.00 0.00 86 1018.1
20260902225831 15 226 0.0 1.6 0.00 0.00 0.00 85 1018.0
20260902225353 15 226 0.0 3.2 0.00 0.00 0.00 84 1018.1
20260902224813 15 226 1.6 3.2 0.00 0.00 0.00 84 1018.1
20260902224313 15 213 1.6 3.2 0.00 0.00 0.00 84 1018.1
20260902223813 15 262 1.6 4.8 0.00 0.00 0.00 84 1018.1
20260902223313 15 248 1.6 3.2 0.00 0.00 0.00 84 1018.1
20260902222815 15 264 1.6 3.2 0.00 0.00 0.00 84 1018.2
20260902222318 15 226 1.6 3.2 0.00 0.00 0.00 84 1018.2
20260902221820 15 224 0.0 3.2 0.00 0.00 0.00 83 1018.2
20260902221322 16 223 1.6 3.2 0.00 0.00 0.00 83 1018.3
20260902220824 16 254 0.0 1.6 0.00 0.00 0.00 83 1018.2
20260902220327 16 254 0.0 1.6 0.00 0.00 0.00 83 1018.3
20260902215828 16 254 0.0 1.6 0.00 0.00 0.00 83 1018.3
20260902215351 16 254 0.0 1.6 0.00 0.00 0.00 82 1018.3
20260902214814 16 254 1.6 3.2 0.00 0.00 0.00 82 1018.3
20260902214316 16 254 1.6 3.2 0.00 0.00 0.00 82 1018.3
20260902213816 16 250 1.6 3.2 0.00 0.00 0.00 81 1018.3
20260902213317 16 237 0.0 3.2 0.00 0.00 0.00 82 1018.3
20260902212815 16 209 1.6 3.2 0.00 0.00 0.00 83 1018.3
20260902212317 15 243 0.0 1.6 0.00 0.00 0.00 84 1018.3